Location: Middlebury
(44.0153°N, 73.1678°W)
Time: 18:03:22
(UTC-04:00)

BlueWalker 3 - Visible Passes

Search period start: 15 April 2024 00:00
Search period end: 25 April 2024 00:00
Orbit: 485 x 496 km, 53.2° (Epoch: 15 April)

Date Brightness Start Highest point End Pass type
(mag) Time Alt. Az. Time Alt. Az. Time Alt. Az.
15 Apr 5.0 02:18:29 12° ENE 02:18:29 12° ENE 02:18:58 10° ENE visible
15 Apr 2.5 03:52:58 27° NW 03:54:46 55° NNE 03:58:32 10° ESE visible
15 Apr 3.0 05:29:38 10° WNW 05:32:48 25° SW 05:35:56 10° S visible
15 Apr 3.7 20:52:40 10° S 20:54:02 16° SSE 20:54:02 16° SSE visible
16 Apr 2.7 03:30:32 51° NE 03:30:32 51° NE 03:33:59 10° ESE visible
16 Apr 2.9 05:05:05 10° WNW 05:08:17 26° SW 05:11:29 10° S visible
16 Apr 3.3 20:28:15 10° S 20:30:57 19° SE 20:33:17 12° E visible
16 Apr 2.7 22:05:02 10° WSW 22:07:53 47° W 22:07:53 47° W visible
17 Apr 4.5 03:08:51 14° ESE 03:08:51 14° ESE 03:09:25 10° ESE visible
17 Apr 2.8 04:43:26 27° WSW 04:43:46 27° SW 04:47:01 10° SSE visible
17 Apr 2.0 21:40:29 10° WSW 21:44:16 73° NW 21:46:25 25° NE visible
17 Apr 4.7 23:19:51 10° WNW 23:20:57 16° WNW 23:20:57 16° WNW visible
18 Apr 4.4 04:22:30 10° SSE 04:22:30 10° SSE 04:22:33 10° SSE visible
18 Apr 2.0 21:15:54 10° WSW 21:19:43 76° NNW 21:23:33 10° NE visible
18 Apr 4.1 22:55:14 10° WNW 22:58:26 24° NNW 22:58:38 24° N visible
19 Apr 2.0 20:51:19 10° WSW 20:55:08 79° NW 20:58:59 10° NE visible
19 Apr 4.1 22:30:37 10° WNW 22:33:49 25° NNW 22:35:45 17° NNE visible
20 Apr 5.2 00:10:01 10° NW 00:10:12 11° NW 00:10:12 11° NW visible
20 Apr 2.0 20:26:43 10° WSW 20:30:32 83° NW 20:34:22 10° NE visible
20 Apr 4.1 22:05:59 10° WNW 22:09:12 25° NNW 22:12:27 10° NE visible
20 Apr 4.8 23:45:25 10° NW 23:46:54 17° NNW 23:46:54 17° NNW visible
21 Apr 4.1 21:41:20 10° WNW 21:44:34 26° NNW 21:47:50 10° NE visible
21 Apr 4.4 23:20:47 10° NW 23:23:22 20° N 23:23:22 20° N visible
22 Apr 4.0 21:16:39 10° WNW 21:19:55 26° NNW 21:23:12 10° NE visible
22 Apr 4.2 22:56:08 10° NW 22:59:05 21° N 22:59:41 20° NNE visible
23 Apr 4.0 20:51:57 10° WNW 20:55:15 27° NNW 20:58:33 10° NE visible
23 Apr 4.2 22:31:28 10° NW 22:34:25 21° N 22:35:54 17° NE visible
24 Apr 4.9 00:09:46 10° NW 00:10:19 13° NW 00:10:19 13° NW visible
24 Apr 4.0 20:27:15 10° WNW 20:30:34 27° NNW 20:33:53 10° NE visible
24 Apr 4.3 22:06:47 10° NW 22:09:44 20° N 22:12:04 13° NE visible
24 Apr 4.5 23:45:07 10° NW 23:46:29 19° NW 23:46:29 19° NW visible
